Temperature
6 6 6 6 6 6 6 6 6 6 6 6 6 5 5 5 5 5 5 5 5 5 5 5 5 6 6 6 6 6 6 6 6 6 6 6 6 7 7 7 7 7 7
5 6 6 6 6 6 5 5 5 5 5 5 5 5 5 5 5 5 5 5 5 5 5 5 5 5 5 5 5 5 5 5 5 6 5 6 6 6 6 6 6 6 6
5 5 5 5 5 5 5 5 5 5 5 5 4 4 4 4 4 4 4 4 4 4 4 4 4 4 4 5 5 5 5 5 5 5 5 5 5 5 5 6 6 6 6
5 5 5 5 5 5 5 4 4 4 4 4 4 4 4 4 4 4 4 4 4 4 4 4 4 4 4 4 4 4 4 4 4 4 5 5 5 4 4 5 5 5 5
4 4 4 4 4 4 4 4 4 4 4 4 3 3 3 3 3 3 3 3 3 3 3 3 3 3 3 4 4 4 4 4 4 4 4 4 4 4 4 4 4 5 5
4 4 4 4 4 4 4 3 3 3 3 3 3 3 3 3 3 3 3 3 3 3 3 3 3 3 3 3 3 3 3 3 3 3 3 3 3 4 4 3 3 4 4
3 3 3 3 3 3 3 3 3 3 3 3 2 2 2 2 2 2 2 2 2 2 2 2 2 2 2 3 3 3 3 3 3 3 3 3 3 3 3 3 3 3 3
3 3 3 3 2 2 2 2 2 2 2 2 2 2 2 1 1 2 2 1 2 2 2 2 2 2 2 2 2 2 2 2 2 2 2 2 2 2 2 2 2 2 2
2 2 2 2 2 2 2 2 2 2 2 2 1 1 1 1 1 1 1 1 1 1 1 1 1 1 1 1 2 2 2 2 2 2 2 2 2 2 2 2 2 2 1
1 1 2 2 2 2 1 1 1 1 1 1 1 1 0 0 0 0 0 0 0 0 1 1 1 1 1 1 1 1 1 1 1 1 1 1 1 2 2 2 1 1 1
1 1 1 1 1 1 1 1 1 1 0 0 0 -0 -0 -0 -0 -0 -0 -0 -0 -0 0 0 0 0 1 0 1 1 1 1 1 1 1 1 1 1 1 1 1 1 1
0 1 1 1 1 0 0 0 0 -0 -0 -0 -1 -1 -1 -1 -1 -1 -1 -1 -1 -1 -1 -0 -0 -0 0 0 0 0 0 0 0 0 0 0 0 0 0 0 0 0 0
-0 -0 0 0 -0 -0 -1 -1 -1 -1 -1 -1 -1 -1 -1 -1 -1 -1 -1 -1 -1 -1 -1 -1 -1 -1 -1 -0 -0 -0 -0 -0 -0 -0 -0 -0 -0 -0 -0 -0 -0 -0 -0
-1 -1 -1 -1 -1 -1 -1 -1 -1 -1 -1 -1 -1 -1 -2 -2 -2 -2 -2 -2 -2 -2 -2 -1 -1 -1 -1 -1 -1 -1 -1 -1 -1 -1 -1 -1 -1 -1 -1 -1 -1 -1 -1
-2 -2 -2 -2 -2 -2 -2 -2 -2 -2 -2 -2 -2 -2 -2 -2 -2 -2 -2 -2 -2 -2 -2 -2 -2 -2 -2 -2 -2 -2 -2 -2 -2 -2 -1 -1 -1 -1 -1 -1 -1 -1 -2
-3 -3 -3 -2 -2 -2 -2 -3 -3 -3 -3 -3 -3 -3 -3 -3 -3 -3 -3 -3 -3 -3 -3 -3 -3 -2 -2 -3 -3 -3 -3 -3 -3 -2 -2 -2 -2 -2 -2 -2 -2 -2 -2
-3 -3 -3 -3 -3 -3 -3 -3 -3 -3 -3 -3 -3 -3 -3 -3 -3 -3 -3 -3 -3 -3 -3 -3 -3 -3 -3 -3 -3 -4 -4 -4 -3 -3 -3 -3 -3 -3 -3 -3 -3 -3 -3
-3 -3 -4 -3 -3 -4 -4 -4 -4 -4 -4 -4 -4 -4 -4 -4 -4 -4 -4 -4 -4 -4 -4 -4 -4 -4 -4 -4 -4 -4 -4 -4 -4 -4 -4 -4 -4 -3 -4 -4 -4 -3 -3
-4 -4 -4 -4 -4 -4 -4 -4 -4 -4 -5 -5 -5 -5 -5 -5 -5 -5 -5 -5 -5 -5 -5 -5 -5 -5 -5 -5 -5 -5 -5 -5 -5 -5 -5 -4 -4 -4 -4 -4 -4 -4 -4
-4 -4 -4 -5 -5 -5 -5 -5 -5 -5 -5 -5 -5 -5 -6 -6 -6 -6 -6 -6 -6 -6 -6 -6 -6 -6 -5 -5 -5 -6 -6 -6 -6 -5 -5 -5 -5 -5 -5 -5 -5 -5 -5
-5 -5 -5 -5 -5 -5 -5 -5 -5 -6 -6 -6 -6 -6 -6 -7 -7 -7 -7 -7 -7 -7 -7 -7 -7 -6 -6 -6 -6 -6 -6 -6 -6 -6 -6 -6 -6 -6 -6 -6 -6 -6 -6
-5 -5 -5 -6 -6 -6 -6 -6 -6 -6 -7 -7 -7 -7 -7 -7 -7 -7 -8 -8 -8 -8 -8 -8 -7 -7 -7 -7 -7 -7 -7 -7 -7 -6 -6 -6 -6 -6 -6 -6 -6 -7 -7
-6 -6 -6 -6 -6 -6 -7 -7 -7 -7 -7 -8 -8 -8 -8 -8 -8 -8 -8 -8 -8 -9 -8 -8 -8 -8 -8 -8 -7 -7 -7 -7 -7 -7 -7 -7 -7 -7 -7 -7 -7 -7 -7
-6 -7 -7 -7 -7 -7 -7 -8 -8 -8 -8 -8 -9 -9 -9 -9 -9 -9 -9 -9 -9 -9 -9 -9 -9 -9 -9 -8 -8 -8 -8 -8 -8 -8 -8 -8 -8 -8 -8 -8 -8 -8 -8
-7 -7 -8 -8 -8 -8 -8 -8 -9 -9 -9 -9 -9 -9 -10 -10 -10 -10 -10 -10 -10 -10 -10 -10 -9 -9 -9 -9 -9 -9 -9 -9 -9 -9 -9 -9 -8 -8 -8 -8 -8 -8 -8
-8 -8 -8 -8 -8 -9 -9 -9 -9 -10 -10 -10 -10 -10 -10 -10 -10 -10 -10 -11 -10 -10 -10 -10 -10 -10 -10 -10 -9 -9 -9 -9 -9 -9 -9 -9 -9 -9 -9 -9 -9 -9 -9
Wind_Speed
4 4 4 4 4 4 3 3 3 2 2 2 2 1 1 0 0 1 1 2 2 2 3 2 1 2 1 1 2 2 2 1 1 1 1 2 2 1 1 1 2 2 2
3 3 4 4 4 4 4 3 3 3 3 2 2 1 1 1 0 1 0 1 1 2 2 1 1 1 1 1 2 2 1 1 1 2 2 0 2 2 1 1 0 1 2
6 5 4 4 4 4 5 4 4 3 3 2 1 1 1 1 0 1 1 1 2 1 1 1 1 1 1 1 1 2 3 3 1 1 2 2 3 1 2 2 1 0 1
5 5 5 4 4 4 3 3 3 3 3 3 3 3 2 2 2 2 2 2 2 2 2 2 1 2 1 2 2 1 2 4 3 1 0 1 2 2 1 2 2 1 0
5 5 5 5 4 3 3 3 2 2 2 3 4 3 2 1 1 1 1 2 2 2 2 2 2 1 2 2 2 1 1 2 3 3 1 0 0 1 2 2 1 2 1
4 4 3 3 2 2 2 2 3 2 2 2 3 4 3 2 1 1 2 2 1 2 2 2 2 2 2 3 2 2 2 1 2 2 2 2 2 2 1 2 2 2 2
4 4 3 3 3 3 3 3 3 3 2 2 2 3 4 4 4 3 3 3 2 2 3 2 2 2 2 3 3 2 2 2 1 2 2 2 2 1 1 2 1 1 2
3 4 5 5 4 4 3 3 3 3 3 3 3 3 3 3 3 4 3 4 3 3 4 3 3 3 3 3 3 2 2 2 1 1 1 1 1 2 2 2 2 1 1
3 3 4 4 4 4 4 4 4 3 3 3 2 2 3 3 3 3 3 3 3 3 3 3 3 3 3 3 3 2 2 2 2 2 2 1 1 1 2 2 2 3 3
2 2 2 3 4 4 3 3 3 4 3 3 3 2 3 3 3 3 4 3 3 3 3 3 3 3 3 3 3 2 2 2 2 2 2 1 1 1 1 1 1 2 3
2 3 3 2 2 1 2 3 3 2 2 3 3 3 3 3 3 3 3 3 3 3 4 4 3 3 3 3 3 2 2 2 2 2 2 2 1 1 1 1 1 1 2
2 2 2 1 1 1 1 2 2 2 3 3 2 3 3 3 3 3 3 3 3 3 4 4 4 4 4 4 4 4 4 3 3 2 2 2 2 2 2 1 1 1 2
2 2 2 1 2 2 2 2 2 2 2 2 2 3 3 3 4 4 3 3 3 3 3 3 4 4 4 5 5 5 5 4 4 3 4 3 3 3 2 2 2 2 1
2 2 2 2 2 3 3 3 3 2 2 2 2 3 4 4 4 3 3 3 3 3 3 3 4 4 4 4 5 5 5 4 4 4 4 4 4 5 4 3 3 2 2
3 3 3 3 3 3 3 3 3 2 2 2 2 3 4 3 3 3 3 3 3 3 3 3 3 3 3 4 4 5 5 5 5 4 4 5 6 6 5 4 4 3 3
4 4 4 3 3 3 3 3 3 3 2 3 3 3 3 3 3 3 3 3 3 3 3 3 3 4 4 5 6 4 3 4 5 5 4 5 5 6 6 6 6 5 5
4 4 4 4 3 3 3 3 3 2 2 3 3 3 3 3 3 3 3 3 4 3 3 3 4 4 5 7 7 6 3 4 4 4 4 4 4 5 3 4 4 5 7
4 4 4 3 2 2 2 2 2 2 2 3 3 3 3 3 3 3 3 3 3 3 4 4 4 4 5 7 7 6 3 3 4 4 5 5 5 5 5 3 3 3 4
4 4 3 3 2 2 2 1 2 2 2 3 3 3 3 3 3 3 4 3 3 3 4 4 3 4 5 7 7 6 3 3 4 4 4 5 5 7 7 4 4 4 4
2 2 2 2 2 2 1 1 2 2 3 4 4 3 3 3 4 4 3 3 3 3 3 3 3 4 5 6 7 6 2 3 3 3 4 6 6 7 7 5 5 5 5
3 2 2 2 2 2 1 1 2 3 4 4 3 3 3 3 3 3 2 2 2 2 2 3 3 3 4 5 6 6 3 3 3 3 3 4 6 7 8 6 5 6 5
3 2 2 3 2 1 1 2 3 4 3 3 3 3 3 3 2 2 2 2 2 2 2 2 3 2 3 4 5 6 6 5 3 3 3 3 6 7 7 5 5 6 4
3 2 2 3 3 2 1 3 4 3 3 2 3 3 3 3 2 2 2 2 1 2 2 2 3 3 2 3 6 6 6 6 3 2 4 5 6 5 4 3 4 3 2
3 2 2 3 3 3 3 3 3 3 2 2 3 3 2 3 2 2 2 2 2 2 3 3 3 3 2 2 3 3 3 4 3 2 3 4 4 3 2 2 1 1 2
3 2 3 4 4 3 3 3 3 1 1 2 2 2 2 2 2 2 2 3 3 4 4 3 3 3 3 4 6 4 3 2 3 1 1 1 1 1 1 1 1 1 2
3 3 4 4 4 3 3 3 2 1 1 2 2 2 2 2 2 2 3 5 4 5 6 5 5 4 5 6 6 6 5 5 3 1 1 2 2 2 2 2 2 2 2
Wind_Direction
217 191 179 167 156 152 158 163 153 148 133 140 149 161 193 193 77 84 134 129 121 121 100 86 113 81 120 172 155 143 138 146 136 109 41 350 341 7 35 61 61 53 70
199 185 179 171 170 170 173 171 169 168 168 169 179 190 191 204 226 354 337 155 144 143 131 119 175 133 95 106 159 136 161 192 161 142 141 286 320 328 328 356 127 68 57
195 188 183 186 179 181 188 184 184 179 173 138 108 86 66 39 6 295 276 271 216 194 167 157 189 173 150 167 194 175 171 185 217 186 158 167 216 268 318 328 322 122 97
189 190 186 191 192 192 182 181 186 181 175 149 151 150 166 205 238 242 247 266 239 223 203 175 195 183 172 189 199 188 197 176 193 219 269 208 161 172 235 314 336 349 167
188 193 190 193 197 185 177 182 174 176 179 168 171 172 185 218 255 252 237 245 263 232 219 204 193 202 192 198 202 200 213 195 191 191 189 178 14 148 174 220 288 330 303
188 194 189 176 180 181 177 180 179 181 172 168 180 186 194 210 232 249 237 248 260 255 254 232 213 219 213 204 206 205 206 212 204 188 186 181 189 197 182 204 236 269 284
183 183 185 191 193 194 194 193 191 196 186 177 193 206 206 207 218 225 229 235 240 254 250 257 240 236 234 218 202 200 208 197 200 196 201 203 206 189 191 192 210 242 273
194 199 199 198 201 201 201 196 201 206 194 193 214 218 213 219 228 231 229 228 231 238 242 245 244 245 232 225 207 203 208 195 197 206 193 202 214 193 192 193 186 219 265
212 215 207 199 201 201 205 201 207 216 211 206 215 226 225 230 242 244 237 234 242 246 237 233 236 240 236 223 203 203 210 186 197 205 206 214 234 216 203 194 190 190 217
249 249 230 213 208 203 207 204 207 220 225 216 215 232 235 237 240 241 242 240 245 241 231 231 236 236 237 226 202 202 204 194 209 210 196 218 225 226 223 198 190 193 204
246 257 260 246 231 221 202 204 213 215 224 226 227 235 239 239 236 234 244 244 243 234 229 230 229 229 225 220 204 212 205 208 223 226 208 215 205 199 230 205 183 189 191
270 281 272 262 247 257 252 235 232 226 226 224 230 239 243 237 234 242 247 250 244 245 236 231 232 233 226 219 210 212 213 213 219 226 222 229 213 198 210 206 212 216 213
293 313 318 262 239 250 260 258 255 251 246 219 222 243 247 241 240 244 245 245 241 248 251 236 235 241 234 223 221 217 216 217 222 221 221 227 214 216 218 209 215 229 247
278 285 290 267 253 251 253 255 264 264 256 229 221 239 249 247 244 247 245 239 240 235 241 243 243 247 239 232 230 223 216 217 225 227 226 226 221 218 216 218 215 215 232
286 281 280 271 260 266 267 262 267 272 258 238 240 251 261 257 250 250 253 246 244 245 244 246 251 252 242 234 236 234 223 221 228 234 234 235 235 235 225 226 215 207 213
282 287 286 282 264 263 269 271 271 276 258 235 248 262 261 255 250 250 255 251 244 245 242 241 249 247 248 252 249 248 234 232 234 240 246 247 241 246 245 244 237 221 211
284 291 286 277 272 270 273 264 266 275 265 253 255 257 254 255 255 257 254 252 245 236 238 245 245 243 254 259 252 248 244 238 240 239 242 250 246 241 231 246 255 253 248
282 290 292 290 291 290 289 292 289 272 261 264 265 259 253 256 256 250 249 254 253 240 239 248 237 241 256 263 261 259 249 240 243 244 243 242 237 232 225 225 235 250 255
275 279 279 282 293 291 294 316 311 293 280 274 271 268 255 254 253 251 253 251 250 255 251 245 235 241 259 266 264 264 247 241 247 251 248 246 237 240 239 227 229 244 259
295 296 302 315 307 302 305 298 294 299 286 285 283 279 263 250 251 252 253 252 253 255 254 263 249 244 251 263 262 263 247 247 253 258 256 255 249 245 242 226 218 235 244
302 303 300 293 290 297 303 281 283 278 283 294 300 295 283 268 256 255 251 243 250 253 249 258 265 255 258 267 268 264 252 244 247 249 250 253 263 259 253 245 227 236 244
313 308 299 293 301 296 271 283 284 288 299 302 306 306 304 298 291 264 263 247 229 243 249 253 269 269 270 278 274 269 267 267 244 244 244 248 263 267 259 251 241 245 252
291 301 294 298 309 304 264 268 288 299 301 305 304 307 310 308 305 284 275 267 241 238 253 246 261 274 278 280 280 276 273 275 270 248 249 256 262 266 257 251 250 244 223
287 295 296 288 294 299 295 279 288 293 292 296 301 306 312 318 320 307 289 276 254 248 250 252 257 268 274 273 268 262 264 268 279 275 267 268 270 276 263 251 254 259 228
283 276 270 271 278 289 291 296 299 289 295 296 299 304 306 302 313 314 299 287 262 253 256 247 244 247 257 263 270 272 264 246 242 256 261 215 207 231 228 229 231 234 233
276 277 275 276 279 283 289 297 298 279 259 290 298 297 302 304 308 311 320 319 308 300 294 287 282 275 276 284 281 281 281 282 269 233 179 215 218 221 224 222 225 225 231
Height
1512 1513 1514 1515 1516 1516 1518 1518 1519 1520 1521 1521 1522 1522 1523 1523 1524 1524 1525 1525 1525 1525 1525 1525 1525 1524 1524 1525 1525 1526 1527 1527 1528 1528 1529 1530 1530 1530 1531 1532 1533 1534 1534
1509 1510 1511 1511 1512 1513 1514 1516 1516 1517 1518 1518 1519 1520 1520 1520 1521 1522 1522 1522 1522 1522 1522 1522 1521 1521 1521 1521 1522 1522 1523 1524 1525 1525 1526 1527 1528 1527 1528 1528 1529 1530 1532
1505 1506 1508 1509 1509 1510 1512 1512 1513 1514 1515 1515 1516 1517 1518 1518 1518 1518 1519 1519 1519 1519 1519 1519 1519 1518 1518 1518 1519 1519 1520 1520 1522 1523 1523 1524 1523 1524 1524 1525 1526 1527 1529
1502 1503 1505 1506 1507 1508 1509 1510 1511 1511 1512 1512 1513 1513 1513 1513 1514 1515 1515 1516 1516 1516 1516 1516 1516 1516 1516 1516 1516 1516 1517 1517 1518 1519 1520 1521 1520 1521 1520 1522 1522 1524 1525
1499 1501 1502 1503 1504 1505 1506 1507 1508 1508 1509 1509 1510 1510 1511 1511 1512 1512 1513 1513 1513 1513 1513 1513 1513 1513 1512 1513 1513 1513 1513 1514 1515 1515 1516 1517 1518 1518 1518 1517 1519 1520 1521
1497 1498 1499 1500 1501 1502 1503 1503 1504 1505 1505 1505 1506 1507 1508 1508 1508 1509 1509 1509 1509 1510 1510 1510 1510 1510 1509 1509 1509 1510 1510 1510 1511 1512 1513 1513 1514 1514 1514 1514 1515 1516 1517
1494 1495 1496 1497 1498 1498 1499 1500 1501 1501 1502 1502 1503 1503 1504 1505 1505 1505 1505 1505 1505 1505 1506 1506 1506 1506 1506 1506 1506 1507 1507 1507 1508 1508 1509 1510 1511 1511 1512 1512 1512 1513 1513
1491 1492 1493 1494 1495 1495 1496 1497 1497 1498 1498 1499 1499 1500 1501 1501 1501 1502 1502 1502 1502 1502 1502 1503 1503 1503 1503 1503 1503 1503 1504 1504 1504 1504 1505 1506 1507 1508 1508 1509 1510 1509 1510
1489 1490 1490 1491 1492 1493 1493 1494 1494 1495 1495 1495 1496 1496 1497 1497 1497 1498 1498 1498 1498 1498 1499 1499 1499 1499 1499 1499 1499 1499 1500 1500 1500 1501 1502 1502 1503 1504 1505 1506 1506 1507 1506
1487 1488 1489 1489 1489 1490 1491 1491 1492 1492 1492 1492 1492 1493 1493 1494 1494 1494 1494 1494 1494 1495 1495 1495 1495 1495 1495 1495 1495 1495 1495 1496 1496 1497 1498 1498 1499 1500 1501 1501 1502 1502 1503
1486 1486 1486 1486 1487 1487 1487 1487 1488 1488 1488 1488 1489 1489 1489 1490 1490 1490 1490 1490 1490 1490 1490 1491 1491 1491 1491 1491 1490 1490 1491 1492 1492 1493 1494 1494 1495 1496 1497 1497 1497 1498 1499
1484 1484 1483 1483 1484 1484 1484 1484 1484 1484 1485 1485 1485 1485 1485 1485 1485 1485 1485 1485 1485 1486 1486 1486 1486 1486 1487 1487 1486 1487 1487 1487 1488 1489 1489 1490 1491 1491 1492 1493 1493 1494 1495
1482 1481 1481 1481 1481 1481 1481 1481 1482 1481 1481 1481 1481 1481 1481 1481 1480 1480 1481 1481 1481 1481 1481 1482 1482 1482 1482 1482 1482 1483 1483 1483 1484 1485 1485 1486 1487 1487 1488 1488 1489 1490 1491
1480 1479 1479 1478 1478 1478 1478 1478 1478 1478 1478 1477 1477 1477 1477 1476 1476 1476 1476 1476 1476 1476 1477 1477 1477 1478 1478 1477 1478 1478 1478 1479 1479 1480 1481 1481 1482 1483 1483 1484 1485 1486 1486
1478 1477 1476 1475 1475 1475 1475 1474 1474 1474 1474 1473 1473 1472 1472 1472 1472 1471 1471 1471 1472 1472 1472 1472 1472 1473 1473 1473 1473 1473 1473 1474 1474 1475 1476 1476 1477 1478 1478 1479 1480 1480 1481
1475 1474 1473 1472 1472 1471 1471 1471 1470 1470 1470 1469 1468 1468 1468 1467 1467 1467 1467 1467 1467 1467 1467 1467 1467 1467 1468 1468 1468 1469 1468 1468 1469 1469 1470 1471 1472 1472 1473 1474 1475 1476 1476
1473 1472 1471 1470 1469 1468 1468 1467 1466 1466 1465 1465 1464 1463 1463 1462 1462 1462 1462 1461 1461 1461 1462 1462 1462 1462 1463 1464 1464 1464 1464 1464 1464 1464 1465 1465 1466 1467 1468 1469 1470 1471 1472
1470 1469 1468 1467 1466 1465 1465 1464 1463 1462 1461 1460 1459 1458 1458 1457 1457 1457 1456 1456 1456 1456 1456 1457 1457 1457 1458 1459 1459 1460 1459 1459 1459 1460 1460 1461 1461 1462 1463 1463 1464 1465 1466
1467 1467 1466 1464 1463 1462 1461 1460 1459 1458 1457 1456 1455 1454 1453 1452 1452 1451 1451 1451 1451 1451 1451 1451 1452 1452 1453 1454 1454 1455 1454 1454 1454 1455 1455 1456 1456 1457 1458 1458 1459 1460 1461
1465 1464 1463 1461 1460 1459 1458 1457 1456 1454 1453 1452 1451 1450 1449 1448 1447 1446 1446 1446 1446 1446 1446 1446 1447 1448 1448 1449 1449 1450 1450 1450 1450 1450 1451 1452 1452 1452 1453 1454 1454 1455 1456
1462 1461 1460 1458 1457 1456 1455 1454 1452 1451 1450 1448 1447 1446 1445 1444 1443 1442 1442 1442 1442 1441 1442 1442 1442 1443 1443 1444 1445 1445 1446 1445 1445 1445 1445 1446 1447 1447 1448 1449 1450 1450 1451
1459 1458 1457 1456 1455 1453 1452 1450 1449 1448 1446 1445 1443 1442 1441 1440 1439 1438 1438 1438 1437 1437 1437 1438 1438 1439 1439 1440 1440 1441 1441 1441 1441 1441 1441 1441 1442 1443 1443 1444 1445 1446 1447
1456 1455 1454 1453 1451 1450 1448 1447 1445 1444 1442 1441 1439 1438 1437 1436 1435 1435 1434 1433 1433 1433 1433 1433 1433 1434 1435 1435 1436 1436 1437 1437 1437 1436 1437 1437 1438 1438 1439 1440 1441 1441 1442
1453 1452 1451 1449 1448 1447 1445 1443 1442 1440 1439 1437 1436 1434 1433 1432 1432 1431 1431 1430 1430 1430 1430 1430 1430 1430 1431 1431 1432 1432 1432 1432 1432 1432 1432 1433 1434 1434 1435 1435 1436 1437 1437
1450 1448 1447 1445 1444 1443 1441 1440 1438 1437 1435 1434 1433 1431 1431 1429 1428 1428 1428 1428 1428 1428 1427 1427 1427 1427 1427 1427 1428 1429 1428 1428 1428 1428 1428 1428 1429 1430 1430 1431 1431 1432 1433
1445 1444 1443 1442 1440 1439 1437 1436 1435 1433 1432 1431 1430 1429 1428 1427 1426 1425 1425 1425 1425 1425 1424 1424 1425 1424 1424 1425 1425 1425 1425 1425 1425 1425 1424 1425 1425 1425 1426 1426 1427 1428 1428